• In Belgium
  • List of Countries
  • For 7 days
  • Water Temperature
  • Satellite Maps
  • Weather Map
  • Weather Widgets
  • user-avatar
    Login

    Hourly Weather Daverdisse

    Today, 21 October, Sunday

    Time Temperature Precipitation Wind Pressure Humidity
    00:00 +6°C° 0 mm 1 mps 737 mmHg 83%
    01:00 +6°C° 0 mm 1 mps 737 mmHg 83%
    02:00 +6°C° 0 mm 1 mps 737 mmHg 84%
    03:00 +6°C° 0 mm 1 mps 736 mmHg 84%
    04:00 +5°C° 0 mm 1 mps 736 mmHg 85%
    05:00 +5°C° 0 mm 1 mps 736 mmHg 85%
    06:00 +5°C° 0 mm 1 mps 736 mmHg 86%
    07:00 +7°C° 0 mm 1 mps 736 mmHg 79%
    08:00 +9°C° 0 mm 1 mps 736 mmHg 72%
    09:00 +12°C° 0 mm 1 mps 737 mmHg 65%
    10:00 +13°C° 0 mm 1 mps 736 mmHg 61%
    11:00 +14°C° 0 mm 1 mps 736 mmHg 57%
    12:00 +16°C° 0 mm 1 mps 736 mmHg 53%
    13:00 +16°C° 0 mm 1 mps 736 mmHg 55%
    14:00 +16°C° 0 mm 1 mps 735 mmHg 58%
    15:00 +16°C° 0 mm 1 mps 735 mmHg 60%
    16:00 +14°C° 0 mm 1 mps 735 mmHg 67%
    17:00 +12°C° 0 mm 1 mps 735 mmHg 74%
    18:00 +10°C° 0 mm 1 mps 735 mmHg 80%
    19:00 +9°C° 0 mm 1 mps 735 mmHg 82%
    20:00 +9°C° 0 mm 1 mps 735 mmHg 83%
    21:00 +8°C° 0 mm 1 mps 735 mmHg 85%
    22:00 +8°C° 0 mm 1 mps 735 mmHg 85%
    23:00 +8°C° 0 mm 1 mps 735 mmHg 85%

    Tomorrow, 22 October, Monday

    Time Temperature Precipitation Wind Pressure Humidity
    00:00 +8°C° 0 mm 1 mps 735 mmHg 85%
    01:00 +8°C° 0 mm 1 mps 735 mmHg 86%
    02:00 +7°C° 0 mm 1 mps 735 mmHg 86%
    03:00 +7°C° 0 mm 1 mps 735 mmHg 86%
    04:00 +7°C° 0 mm 1 mps 736 mmHg 87%
    05:00 +7°C° 0 mm 1 mps 736 mmHg 87%
    06:00 +7°C° 0 mm 1 mps 736 mmHg 88%
    07:00 +7°C° 0 mm 2 mps 737 mmHg 86%
    08:00 +9°C° 0 mm 3 mps 737 mmHg 84%
    09:00 +10°C° 0 mm 4 mps 738 mmHg 82%
    10:00 +10°C° 0 mm 4 mps 738 mmHg 83%
    11:00 +9°C° 0 mm 5 mps 738 mmHg 84%
    12:00 +9°C° 0 mm 5 mps 739 mmHg 85%
    13:00 +9°C° 0 mm 5 mps 739 mmHg 83%
    14:00 +9°C° 0 mm 5 mps 739 mmHg 81%
    15:00 +9°C° 0 mm 5 mps 739 mmHg 79%
    16:00 +8°C° 0 mm 5 mps 739 mmHg 81%
    17:00 +7°C° 0 mm 4 mps 740 mmHg 82%
    18:00 +6°C° 0 mm 4 mps 740 mmHg 84%
    19:00 +5°C° 0 mm 3 mps 740 mmHg 85%
    20:00 +4°C° 0 mm 3 mps 741 mmHg 87%
    21:00 +4°C° 0 mm 2 mps 741 mmHg 89%
    22:00 +3°C° 0 mm 2 mps 741 mmHg 90%
    23:00 +3°C° 0 mm 2 mps 741 mmHg 91%

    Day after tomorrow, 23 October, Tuesday

    Time Temperature Precipitation Wind Pressure Humidity
    00:00 +2°C° 0 mm 2 mps 741 mmHg 92%
    01:00 +3°C° 0 mm 1 mps 740 mmHg 92%
    02:00 +3°C° 0 mm 1 mps 740 mmHg 91%
    03:00 +3°C° 0 mm 1 mps 740 mmHg 91%
    04:00 +3°C° 0 mm 1 mps 740 mmHg 91%
    05:00 +3°C° 0 mm 1 mps 740 mmHg 90%
    06:00 +3°C° 0 mm 1 mps 739 mmHg 90%
    07:00 +4°C° 0 mm 2 mps 739 mmHg 85%
    08:00 +5°C° 0 mm 3 mps 739 mmHg 79%
    09:00 +8°C° 0 mm 3 mps 739 mmHg 74%
    10:00 +8°C° 0 mm 4 mps 739 mmHg 71%
    11:00 +10°C° 0 mm 4 mps 739 mmHg 68%
    12:00 +10°C° 0 mm 5 mps 738 mmHg 65%
    13:00 +10°C° 0 mm 5 mps 738 mmHg 67%
    14:00 +10°C° 0 mm 5 mps 737 mmHg 68%
    15:00 +10°C° 0 mm 5 mps 737 mmHg 69%
    16:00 +10°C° 0 mm 4 mps 737 mmHg 76%
    17:00 +8°C° 0 mm 4 mps 736 mmHg 82%
    18:00 +7°C° 0 mm 3 mps 736 mmHg 88%
    19:00 +7°C° 0 mm 3 mps 736 mmHg 88%
    20:00 +8°C° 0 mm 3 mps 736 mmHg 88%
    21:00 +8°C° 0 mm 3 mps 736 mmHg 87%
    22:00 +8°C° 0 mm 3 mps 736 mmHg 89%
    23:00 +8°C° 0 mm 3 mps 736 mmHg 91%

    24 October, Wednesday

    Time Temperature Precipitation Wind Pressure Humidity
    00:00 +8°C° 0 mm 3 mps 736 mmHg 93%
    01:00 +8°C° 0 mm 3 mps 736 mmHg 94%
    02:00 +8°C° 0 mm 3 mps 736 mmHg 96%
    03:00 +8°C° 0 mm 3 mps 735 mmHg 97%
    04:00 +9°C° 0.1 mm 3 mps 735 mmHg 97%
    05:00 +9°C° 0.1 mm 3 mps 735 mmHg 97%
    06:00 +10°C° 0.1 mm 3 mps 736 mmHg 97%
    07:00 +10°C° 0.1 mm 4 mps 736 mmHg 96%
    08:00 +11°C° 0.1 mm 4 mps 736 mmHg 95%
    09:00 +11°C° 0.1 mm 4 mps 736 mmHg 93%
    10:00 +12°C° 0.1 mm 4 mps 736 mmHg 93%
    11:00 +12°C° 0.1 mm 4 mps 736 mmHg 92%
    12:00 +13°C° 0.1 mm 4 mps 736 mmHg 91%
    13:00 +13°C° 0.1 mm 4 mps 736 mmHg 92%
    14:00 +13°C° 0.1 mm 3 mps 736 mmHg 92%
    15:00 +13°C° 0.1 mm 3 mps 736 mmHg 93%
    16:00 +13°C° 0 mm 3 mps 736 mmHg 94%
    17:00 +12°C° 0 mm 3 mps 736 mmHg 95%
    18:00 +12°C° 0 mm 3 mps 736 mmHg 96%
    19:00 +12°C° 0 mm 3 mps 736 mmHg 97%
    20:00 +12°C° 0 mm 2 mps 736 mmHg 97%
    21:00 +12°C° 0 mm 2 mps 736 mmHg 97%
    22:00 +12°C° 0 mm 2 mps 736 mmHg 98%
    23:00 +12°C° 0 mm 2 mps 735 mmHg 98%

    25 October, Thursday

    Time Temperature Precipitation Wind Pressure Humidity
    00:00 +12°C° 0 mm 2 mps 735 mmHg 98%
    01:00 +12°C° 0 mm 2 mps 735 mmHg 98%
    02:00 +12°C° 0 mm 2 mps 734 mmHg 98%
    03:00 +10°C° 0 mm 2 mps 734 mmHg 98%
    04:00 +10°C° 0 mm 2 mps 734 mmHg 98%
    05:00 +9°C° 0 mm 2 mps 733 mmHg 98%
    06:00 +9°C° 0 mm 2 mps 733 mmHg 97%
    07:00 +10°C° 0 mm 2 mps 733 mmHg 95%
    08:00 +12°C° 0 mm 2 mps 733 mmHg 94%
    09:00 +11°C° 0 mm 3 mps 733 mmHg 92%
    10:00 +12°C° 0 mm 3 mps 733 mmHg 88%
    11:00 +12°C° 0 mm 3 mps 732 mmHg 84%
    12:00 +12°C° 0 mm 3 mps 732 mmHg 81%
    13:00 +12°C° 0 mm 3 mps 732 mmHg 79%
    14:00 +13°C° 0 mm 2 mps 731 mmHg 76%
    15:00 +13°C° 0 mm 2 mps 731 mmHg 74%
    16:00 +10°C° 0 mm 2 mps 730 mmHg 80%
    17:00 +10°C° 0 mm 1 mps 730 mmHg 85%
    18:00 +8°C° 0 mm 1 mps 729 mmHg 90%
    19:00 +8°C° 0 mm 1 mps 729 mmHg 91%
    20:00 +7°C° 0 mm 1 mps 729 mmHg 92%
    21:00 +7°C° 0 mm 1 mps 729 mmHg 92%
    22:00 +6°C° 0 mm 1 mps 728 mmHg 93%
    23:00 +6°C° 0 mm 1 mps 728 mmHg 93%

    26 October, Friday

    Time Temperature Precipitation Wind Pressure Humidity
    00:00 +6°C° 0 mm 1 mps 727 mmHg 93%
    01:00 +6°C° 0 mm 1 mps 726 mmHg 93%
    02:00 +5°C° 0 mm 1 mps 726 mmHg 94%
    03:00 +5°C° 0 mm 1 mps 725 mmHg 94%
    04:00 +5°C° 0 mm 1 mps 725 mmHg 94%
    05:00 +5°C° 0 mm 1 mps 724 mmHg 94%
    06:00 +4°C° 0 mm 1 mps 724 mmHg 94%
    07:00 +6°C° 0 mm 1 mps 724 mmHg 89%
    08:00 +6°C° 0 mm 2 mps 723 mmHg 84%
    09:00 +8°C° 0 mm 2 mps 723 mmHg 80%
    10:00 +9°C° 0 mm 2 mps 723 mmHg 76%
    11:00 +10°C° 0 mm 2 mps 722 mmHg 72%
    12:00 +12°C° 0 mm 2 mps 722 mmHg 68%
    13:00 +12°C° 0 mm 2 mps 721 mmHg 71%
    14:00 +12°C° 0 mm 2 mps 721 mmHg 74%
    15:00 +10°C° 0 mm 2 mps 720 mmHg 77%
    16:00 +9°C° 0.2 mm 2 mps 720 mmHg 82%
    17:00 +8°C° 0.2 mm 2 mps 720 mmHg 88%
    18:00 +7°C° 0.2 mm 2 mps 720 mmHg 93%
    19:00 +7°C° 0.3 mm 2 mps 720 mmHg 94%
    20:00 +7°C° 0.3 mm 2 mps 719 mmHg 96%
    21:00 +6°C° 0.3 mm 2 mps 719 mmHg 97%
    22:00 +7°C° 0.4 mm 1 mps 719 mmHg 97%
    23:00 +7°C° 0.4 mm 1 mps 719 mmHg 97%
    Show more